Regional Weather Roundup
Issued by NWS Newport/Morehead, NC

Current Version | Previous Version | Text Only | Print | Product List | Glossary Off
Versions: 1 2 3 4 5 6 7 8 9 10 11 12 13 14 15 16 17 18 19 20 21 22 23 24 25 26 27 28 29 30 31 32 33 34 35 36 37 38 39 40 41 42 43 44 45 46 47 48 49 50
000 ASUS42 KMHX 202022 RWRMHX WEATHER ROUNDUP FOR EASTERN NORTH CAROLINA NATIONAL WEATHER SERVICE NEWPORT/MOREHEAD CITY NC 400 PM EDT SAT SEP 20 2014 NOTE: "FAIR" INDICATES FEW OR NO CLOUDS BELOW 12,000 FEET WITH NO SIGNIFICANT WEATHER AND/OR OBSTRUCTIONS TO VISIBILITY NCZ015>017-031-032-045>047-102-103-202100- NORTH COAST CITY SKY/WX TMP DP RH WIND PRES REMARKS EDENTON CLOUDY 75 71 85 NE5 30.06F ELIZABETH CITY PTSUNNY 74 67 78 NE16G23 30.07F KITTY HAWK CLOUDY 73 69 86 NE8G17 30.04F MANTEO CLOUDY 73 69 87 NE14 30.05S $$ NCZ045>047-081-094-103-104-202100- CENTRAL COAST CITY SKY/WX TMP DP RH WIND PRES REMARKS FRISCO CLOUDY 73 72 96 NE9 30.02F SWANQUARTER N/A 75 N/A N/A N10G17 30.00S $$ NCZ095-097-098-100-101-202100- SOUTHERN COAST CITY SKY/WX TMP DP RH WIND PRES REMARKS BEAUFORT CLOUDY 75 71 87 NE15G21 30.00F CEDAR ISLAND N/A 75 N/A N/A N14G24 30.03F JACKSONVILLE CLOUDY 76 69 79 N15 30.00F NEWPORT NOT AVBL PINEY ISLAND CLOUDY 78 70 76 NE20 30.00F WILMINGTON CLOUDY 76 69 79 NE15 29.98F $$ NCZ011>013-027>030-043-044-078>080-089-090>093-098-202100- COASTAL PLAIN CITY SKY/WX TMP DP RH WIND PRES REMARKS AHOSKIE MOSUNNY 77 65 66 N9G16 30.06F CLINTON PTSUNNY 78 66 66 N7 30.03F ELIZABETHTOWN CLOUDY 77 65 66 CALM 30.01F GOLDSBORO PTSUNNY 78 69 73 N3 30.02F GREENVILLE PTSUNNY 79 68 69 N10 30.06F HAVELOCK CLOUDY 76 69 79 NE14 30.02F KENANSVILLE CLOUDY 77 64 64 N7 30.03F KINSTON PTSUNNY 79 64 61 N12 30.04F NEW BERN CLOUDY 79 68 69 NE12 30.03F RICHLANDS CLOUDY 75 64 69 N9 30.01F ROANOKE RAPIDS NOT AVBL ROCKY MOUNT MOSUNNY 81 59 47 NE15 30.05F WASHINGTON CLOUDY 76 67 74 NE12G18 30.05R WHITEVILLE CLOUDY 76 65 67 N5 30.00S $$ AMZ130-135-150-152-154-156-158-170-250-252-270-ANZ085-086-088-633-658-670-202100- MARINE OBSERVATIONS STATION/POSITION TIME TEMP WIND PRES WAVE SWELL AIR SEA DIR/SP/G HT/PER HT/PER (UTC) (F) (DEG/KT/KT) (MB) (FT/S) (FT/S) CHESAPEAKE LIGHT 2000 71 60/ 21/ 22 1019.1 BUOY 44014 2000 74 77 30/ 17/ 19 1017.5 8/ 9 5/ 9 DUCK 2000 73 74 40/ 23/ 25 1016.8 2E DUCK 2000 N/A 7/ 9 2/11 OREGON INLET 2000 74 73 20/ 12/ 19 1017.0 BUOY 44095 2000 74 N/A 8/10 3/11 20E OREGON INLET NOT AVBL HATTERAS CG 2000 74 73 30/ 11/ 16 1016.6 DIAMOND BUOY 2000 80 90/ 14/ 23 1015.7 7/ 9 7/ 9 CAPE LOOKOUT 2000 74 20/ 14/ 20 1015.4 BEAUFORT LAB 2000 74 75 20/ 11/ 16 1015.2 30 SE NEW RIVER 2000 76 83 30/ 21/ 25 1014.7 6/ 9 3/ 9 5 SE WRIGHTSVILL 2000 73 80 30/ 19/ 23 N/A BUOY 41002 1928 76 82 190/ 19/ 25 1012.0 9/ 8 BUOY 41004 2000 76 82 30/ 17/ 21 1012.4 8/ 7 3/ 9 $$

USA.gov is the U.S. government's official web portal to all federal, state and local government web resources and services.